Location: Kapuskasing
(49.3803°N, 82.4001°W)
Time: 13:48:36
(UTC-05:00)

RS-44 - Pass Details

Date: 19 December 2025
Orbit: 1174 x 1511 km, 82.5° (Epoch: 21 January)

Event Time Altitude Azimuth Distance (km) Brightness Sun altitude
Exits shadow 03:44:00 12° 353° (N) 3,406 ? -43.7°
Drops below altitude 10° 03:44:39 10° 356° (N) 3,567 ? -43.6°
Sets 03:48:04 0° 9° (N) 4,501 ? -43.1°
